Location: ??????
(38.0677°N, 22.9870°E)
Time: 15:40:42
(UTC+00:00)

MSX - Pass Details

Date: 23 May 2024
Orbit: 893 x 906 km, 99.0° (Epoch: 23 June)

Event Time Altitude Azimuth Distance (km) Brightness Sun altitude
Rises 00:23:20 0° 12° (NNE) 3,518 8.1 -25.0°
Reaches altitude 10° 00:25:44 10° 12° (NNE) 2,573 7.1 -24.8°
Maximum altitude 00:31:28 84° 286° (WNW) 903 3.7 -24.2°
Enters shadow 00:32:44 57° 204° (SSW) 1,047 3.8 -24.1°
